RH
6 9 14 34 50 67 50 39 46 39 37 45 35 18 15 25 51 62 59 54 51 36 35 37 32 28 25 17 15 12 9 7 6 6 6 5 5 4 4 4 4 4 4 4
5 9 14 40 47 38 34 56 62 39 38 30 28 25 15 12 13 22 31 17 12 10 11 12 13 14 12 13 12 12 10 10 10 10 12 12 9 6 5 4 4 3 4 3
5 7 13 21 19 24 23 27 35 31 29 26 18 18 19 13 10 10 15 27 23 28 28 29 28 24 20 18 17 16 13 10 10 12 14 16 17 15 13 10 8 6 5 5
5 5 8 15 16 16 18 17 19 18 17 17 19 25 15 10 8 11 22 23 23 23 24 25 26 22 20 18 11 10 12 14 28 49 30 20 21 18 17 15 13 13 13 8
6 5 6 7 12 13 13 16 18 19 19 19 16 12 10 10 14 17 21 18 12 13 18 19 13 10 14 24 24 24 37 51 54 51 48 27 22 17 18 17 15 12 14 15
6 6 6 6 6 7 9 11 11 10 10 10 9 10 12 13 12 10 7 7 7 7 14 39 70 68 66 75 72 68 63 56 49 48 45 43 44 46 40 32 18 14 12 14
10 7 6 7 7 7 7 8 9 10 9 8 8 8 8 7 8 8 8 8 41 82 84 74 80 83 79 72 88 75 62 58 58 53 50 56 50 63 60 53 52 45 25 14
11 11 9 6 7 8 7 7 7 7 8 9 9 8 7 8 8 8 7 34 78 78 67 80 91 89 67 81 82 65 64 58 60 54 64 70 74 64 57 60 55 51 55 42
22 14 11 11 8 7 8 9 9 9 9 8 9 9 15 25 24 9 16 46 62 68 54 66 81 73 73 76 57 74 73 63 59 61 65 72 60 54 56 51 44 52 54 60
26 24 22 15 12 11 8 8 8 9 9 10 12 13 14 10 10 44 47 50 48 60 55 57 67 79 67 56 67 69 64 64 55 61 68 66 78 65 62 47 73 74 78 60
18 25 23 26 21 14 11 11 9 8 8 8 8 11 15 18 15 8 36 37 41 48 36 45 54 72 72 64 54 62 74 74 66 67 68 62 61 71 54 57 80 90 78 76
12 14 21 22 27 24 18 13 11 10 9 7 8 8 7 7 4 12 27 29 35 39 31 37 42 54 62 58 55 58 59 69 73 66 67 62 67 61 75 76 68 99 83 99
12 13 12 16 19 27 29 26 23 17 12 11 8 9 6 11 16 21 23 27 31 28 28 39 39 41 51 56 49 43 46 55 57 71 70 71 69 81 85 75 85 95 72 82
17 13 14 12 10 13 16 19 27 28 27 15 11 7 8 6 6 6 8 10 12 15 23 29 31 34 31 40 47 45 38 34 36 40 53 68 69 74 96 92 82 96 96 77
46 37 22 15 15 11 10 12 11 16 24 31 24 11 7 8 7 6 6 5 5 4 7 18 22 25 22 19 26 33 26 24 23 22 22 36 69 64 77 94 98 95 97 96
62 58 50 40 19 18 12 12 12 12 10 17 28 25 14 9 7 9 9 7 7 6 5 5 8 12 13 13 15 18 15 9 6 6 8 27 42 80 71 78 92 96 97 99
72 68 62 54 52 37 27 24 16 14 14 10 11 15 32 19 13 7 7 9 10 10 9 9 8 6 5 6 7 7 9 9 9 7 7 10 37 68 85 89 91 90 82 92
82 78 72 66 64 56 45 44 37 31 32 19 13 11 17 30 24 15 11 8 7 9 10 11 11 9 9 9 10 12 13 14 14 12 8 7 39 58 81 77 85 97 84 95
92 90 79 71 70 63 70 58 58 58 43 39 37 16 10 10 26 30 29 16 12 10 7 8 10 11 12 12 12 13 14 14 15 15 9 7 38 60 44 59 64 96 98 98
100 99 96 88 86 71 72 69 72 67 76 67 57 33 13 9 10 13 26 37 28 16 13 11 10 8 10 12 12 12 11 11 13 16 12 9 52 52 40 30 24 28 40 53
95 100 100 97 87 78 96 90 74 70 72 70 68 66 41 14 9 10 12 17 27 35 39 34 18 13 12 10 10 10 10 11 11 14 16 19 35 39 24 12 7 8 11 18
72 88 91 81 76 77 90 95 88 73 73 68 77 75 66 26 16 11 11 14 13 13 16 19 28 43 35 18 14 14 14 15 15 14 14 18 15 12 12 11 11 11 10 10
64 84 87 83 71 87 96 86 98 89 67 68 60 76 71 73 46 22 14 13 13 13 13 14 17 19 23 42 41 25 22 18 16 16 17 15 17 20 20 20 20 21 21 21
60 82 73 84 69 97 89 89 88 90 74 79 68 64 62 64 75 74 25 18 18 16 16 14 15 17 18 21 28 32 46 52 51 47 22 17 18 17 16 18 21 23 24 25
59 70 94 72 63 90 75 97 97 93 94 80 81 66 65 75 92 85 61 23 21 22 22 20 20 16 18 16 18 22 21 20 31 52 64 63 40 21 18 20 21 21 21 21
44 55 82 54 65 96 56 84 94 85 78 73 73 65 58 77 89 97 100 42 25 25 27 28 34 31 19 18 17 16 18 16 14 17 22 26 44 60 61 58 31 21 21 23
Wind_Speed
35 32 28 27 29 32 37 31 29 31 35 46 44 50 47 45 48 47 49 49 44 41 44 46 47 48 50 50 51 52 52 53 57 60 62 66 68 69 70 71 71 70 68 66
44 39 36 34 31 32 32 23 16 19 29 36 35 39 43 40 36 40 42 31 31 36 39 40 41 41 42 42 42 45 49 50 50 51 50 53 59 65 69 73 76 75 74 71
44 46 40 38 38 36 32 21 12 8 16 20 24 23 34 34 26 20 20 27 29 28 30 34 36 36 38 39 43 46 48 47 45 44 45 47 52 53 57 63 69 71 73 73
40 48 46 41 40 40 37 32 22 16 10 6 4 9 23 18 11 15 23 21 21 25 26 28 30 34 37 42 42 40 39 39 40 42 42 46 48 50 55 57 56 64 67 70
35 40 47 47 43 42 40 37 33 29 24 19 17 17 16 12 13 15 14 17 20 24 26 29 30 30 32 34 36 38 36 35 34 36 38 43 46 48 48 52 55 55 61 66
31 35 38 43 46 44 41 36 31 28 26 22 18 13 10 8 7 10 12 13 16 18 19 20 22 25 27 25 19 18 21 23 25 28 30 36 42 43 42 42 45 51 56 61
26 30 33 35 37 40 40 37 33 29 24 17 11 8 4 3 6 9 11 14 14 14 13 13 13 12 9 8 14 17 20 21 21 24 23 28 35 33 36 40 42 47 51 57
23 24 27 30 32 32 33 34 35 32 27 21 16 10 6 9 12 13 11 14 12 9 7 6 8 9 11 14 14 16 16 16 18 21 21 24 34 43 42 40 42 45 53 56
22 23 24 25 26 28 27 29 30 29 28 25 22 19 13 15 15 13 13 15 11 13 11 9 10 11 15 14 12 9 13 11 17 16 26 26 21 25 33 39 44 46 48 59
21 21 22 23 23 24 25 25 25 27 29 28 25 25 18 18 14 19 17 15 13 13 15 12 11 10 11 13 9 11 11 13 11 16 13 12 16 17 24 30 34 36 41 50
19 19 20 21 22 22 22 23 23 24 25 29 33 34 34 26 17 13 19 13 13 11 10 12 14 11 11 11 12 10 10 13 14 20 18 15 17 15 17 21 23 27 33 37
22 19 18 19 19 19 20 21 21 23 24 25 29 35 41 42 24 15 11 8 9 10 11 13 14 14 13 13 13 14 12 15 17 20 18 16 12 14 17 19 15 21 23 33
26 25 21 18 17 17 19 19 20 21 21 22 23 27 32 29 23 11 2 6 13 17 16 16 17 17 18 19 19 19 18 17 18 18 15 18 17 14 15 18 13 13 18 18
23 25 27 26 22 18 18 20 20 22 21 20 19 18 20 22 19 17 12 13 18 24 21 18 18 17 18 18 18 19 21 20 18 19 18 19 14 16 11 12 9 12 15 26
24 24 23 27 25 24 22 20 20 19 21 19 18 14 12 12 11 11 14 18 22 21 17 20 20 22 21 19 20 19 21 23 23 22 20 19 16 11 13 12 8 6 8 7
20 20 23 23 24 24 26 25 22 19 20 19 16 15 13 10 9 9 11 10 15 19 21 11 18 24 23 20 20 20 22 21 18 22 21 15 17 15 7 10 11 12 4 5
24 23 24 19 24 23 24 27 28 26 21 20 21 18 15 14 13 13 11 10 9 10 11 13 17 21 14 9 10 7 12 16 19 23 21 16 9 12 12 11 12 10 9 14
28 30 29 24 24 21 21 25 27 28 30 24 23 22 18 16 17 14 17 17 15 12 10 10 10 11 11 9 9 11 14 17 22 27 29 16 12 4 7 9 13 12 14 11
30 31 33 30 30 20 24 26 27 28 29 29 29 26 24 22 21 19 18 19 20 19 17 15 12 10 9 9 10 12 15 17 21 27 34 21 15 7 4 10 6 8 5 12
36 34 32 33 33 28 24 28 31 31 33 35 30 25 26 26 24 24 20 18 19 21 22 21 20 17 14 13 15 15 17 18 20 22 28 14 7 5 2 4 6 9 10 5
43 39 36 36 39 35 25 29 37 40 38 34 33 31 27 30 30 26 24 23 21 22 24 24 22 23 23 20 20 20 19 19 18 16 15 8 5 10 11 11 11 11 15 17
52 49 44 46 46 39 36 35 37 39 39 39 37 35 30 29 32 34 28 27 23 20 21 24 26 26 25 25 25 24 22 20 19 17 13 6 4 5 5 4 4 4 2 3
61 55 53 51 50 41 39 37 40 41 44 41 41 40 39 31 31 37 36 33 30 25 21 22 23 24 24 24 24 25 23 22 21 19 18 16 13 11 10 10 9 9 9 9
71 66 67 60 52 44 46 47 45 43 42 42 41 44 42 38 32 36 40 40 36 36 29 24 23 24 24 23 22 23 25 24 23 23 22 22 22 21 20 19 18 17 17 18
77 74 66 69 66 56 55 50 47 48 51 47 46 45 49 42 37 36 40 42 41 39 39 32 26 26 25 22 25 23 23 23 23 23 25 26 25 25 27 27 27 26 26 27
78 73 67 73 68 63 69 59 53 51 51 50 48 46 50 46 42 41 40 44 44 43 42 39 33 30 29 23 23 24 23 21 19 21 21 22 24 26 28 30 30 30 32 33
Wind_Direction
15 10 353 338 321 311 308 293 272 260 254 254 252 246 239 244 251 251 252 252 259 261 258 258 259 260 262 261 262 263 263 263 263 262 261 259 258 255 254 253 250 249 247 249
20 20 16 6 353 341 337 320 291 261 253 260 251 242 234 233 243 249 254 259 248 252 253 252 251 253 256 259 262 263 264 263 261 256 251 257 257 255 254 250 249 246 244 243
22 22 25 23 19 12 7 4 343 320 276 269 258 241 224 218 232 246 238 235 244 252 255 255 254 253 256 258 261 264 268 268 261 256 254 257 256 252 254 251 248 243 241 238
26 29 28 31 33 31 32 30 33 34 25 331 310 175 200 198 209 222 225 236 243 249 254 255 254 255 258 264 266 267 270 271 268 269 257 252 248 248 249 250 249 244 239 239
23 29 32 33 36 40 41 43 45 53 61 70 98 130 155 169 183 206 221 241 249 249 251 253 256 257 260 266 270 272 271 271 265 258 254 249 250 247 245 246 245 243 242 236
21 26 31 35 38 40 45 47 47 53 65 76 84 99 127 156 192 212 221 232 247 246 245 254 262 265 270 274 275 269 272 272 266 270 265 253 249 245 244 244 247 244 239 236
16 23 28 32 35 40 44 47 49 48 48 54 60 66 78 166 209 222 237 237 240 246 245 259 288 282 268 250 281 280 289 287 275 272 274 270 253 249 254 252 250 243 240 236
12 18 24 27 31 36 41 45 47 50 47 40 30 8 321 274 258 251 238 219 218 250 279 299 306 255 239 248 279 287 296 298 290 283 289 287 268 253 255 258 258 252 243 238
14 15 17 20 24 26 33 36 39 41 38 38 36 29 358 310 284 251 231 222 240 253 283 297 306 244 237 243 272 304 325 318 305 294 293 281 272 274 267 264 262 258 248 239
5 9 11 11 14 16 20 22 26 28 27 26 14 8 1 346 302 258 242 232 245 258 289 293 297 279 257 263 286 305 309 334 342 328 321 295 300 289 287 263 276 261 245 237
6 0 4 7 7 6 8 10 12 12 16 17 18 10 2 351 327 246 223 227 237 262 288 289 300 308 297 313 320 337 343 351 324 331 327 312 294 318 323 296 280 257 245 240
1 1 356 357 358 1 360 360 360 0 3 10 17 17 15 19 35 152 172 207 246 274 282 290 303 306 312 322 326 329 338 339 354 348 339 345 335 309 334 328 307 264 244 237
347 352 358 355 354 351 348 352 354 354 354 359 10 22 27 41 76 100 94 292 292 296 296 295 304 310 313 319 332 344 343 346 347 356 351 326 328 329 336 352 329 263 240 238
339 337 343 347 350 348 342 346 352 345 352 351 0 8 28 40 37 33 12 331 307 296 290 293 298 305 313 316 319 327 334 339 344 344 344 338 331 331 332 351 354 341 259 231
331 334 335 331 340 340 342 345 348 347 341 346 345 349 355 14 29 19 9 27 22 2 293 280 288 287 295 303 308 314 318 320 322 325 325 334 337 314 327 323 343 13 82 16
328 328 334 331 329 326 326 331 337 343 341 339 336 334 330 321 330 345 1 1 359 28 33 2 294 282 285 293 299 307 315 322 334 331 308 313 329 335 309 322 321 306 199 320
326 324 335 331 324 323 319 319 319 322 324 327 328 324 309 307 301 298 306 320 339 359 10 2 17 33 23 314 305 29 26 10 1 357 346 293 297 313 315 296 328 289 283 286
315 316 318 324 330 318 311 306 309 313 311 314 312 315 311 295 291 288 283 287 290 301 317 340 356 4 10 12 16 6 359 356 357 354 349 308 246 286 346 321 273 259 289 305
303 303 306 312 316 319 301 302 304 304 304 304 308 300 301 300 281 278 281 285 285 288 288 293 299 308 320 324 328 336 338 343 349 355 353 326 221 176 78 45 15 261 298 240
297 295 295 302 300 307 303 297 298 297 299 297 299 295 288 290 290 282 276 275 283 284 280 280 282 283 284 288 296 306 317 326 337 352 4 19 177 206 258 286 313 306 278 247
294 291 293 293 293 299 288 282 290 294 299 297 295 291 284 282 282 286 281 278 276 276 282 284 280 278 278 277 283 290 299 309 321 337 4 33 309 302 304 304 303 286 270 278
292 293 292 291 294 298 293 286 282 288 291 292 289 286 283 271 275 278 280 276 273 275 281 285 287 284 281 278 277 280 285 291 299 307 313 324 324 314 313 316 316 322 317 294
287 286 287 286 291 298 289 283 275 275 290 286 285 283 280 276 267 273 274 275 274 267 272 278 284 289 288 286 285 283 283 284 283 283 286 286 278 270 262 264 266 266 270 272
282 284 285 288 290 282 283 279 272 273 278 277 278 277 277 278 274 267 267 270 271 274 267 270 272 275 278 281 279 282 283 282 280 284 283 276 277 278 275 273 270 266 264 263
279 282 286 282 284 283 277 270 272 268 268 271 271 272 274 273 274 270 264 262 266 269 271 268 269 271 266 276 278 278 283 288 287 286 285 282 279 277 277 279 279 278 277 276
279 280 281 280 277 275 275 274 268 268 269 266 265 268 273 273 269 265 262 258 260 264 268 272 269 266 272 278 277 273 273 279 285 290 288 286 284 282 278 277 277 278 280 280